| time (UTC) | temp F | wind direction | speed knots | gust knots | rain 1hr in | rain 24hr in | rain mn in | humidity % | barometer mb |
| 20260508030116 | 45 | 224 | 0.9 | 2.6 | 0.00 | 0.28 | 0.28 | 74 | 1016.5 |
| 20260508025537 | 45 | 224 | 1.7 | 2.6 | 0.00 | 0.28 | 0.28 | 75 | 1016.5 |
| 20260508025024 | 45 | 229 | 0.9 | 1.7 | 0.00 | 0.28 | 0.28 | 74 | 1016.5 |
| 20260508024609 | 44 | 229 | 1.7 | 1.7 | 0.00 | 0.28 | 0.28 | 75 | 1016.4 |
| 20260508024020 | 45 | 229 | 1.7 | 1.7 | 0.00 | 0.28 | 0.28 | 74 | 1016.4 |
| 20260508023530 | 45 | 229 | 0.9 | 1.7 | 0.00 | 0.28 | 0.28 | 73 | 1016.4 |
| 20260508023100 | 45 | 229 | 0.9 | 1.7 | 0.00 | 0.28 | 0.28 | 73 | 1016.4 |
| 20260508022539 | 46 | 229 | 0.9 | 2.6 | 0.00 | 0.28 | 0.28 | 74 | 1016.3 |
| 20260508022036 | 46 | 229 | 1.7 | 2.6 | 0.00 | 0.28 | 0.28 | 74 | 1016.3 |
| 20260508021633 | 46 | 231 | 1.7 | 2.6 | 0.00 | 0.28 | 0.28 | 73 | 1016.3 |
| 20260508021035 | 47 | 251 | 0.9 | 1.7 | 0.00 | 0.28 | 0.28 | 72 | 1016.3 |
| 20260508020605 | 47 | 276 | 0.0 | 1.7 | 0.00 | 0.28 | 0.28 | 72 | 1016.3 |
| 20260508020058 | 47 | 276 | 0.0 | 0.9 | 0.00 | 0.28 | 0.28 | 71 | 1016.3 |
| 20260508015522 | 47 | 276 | 0.0 | 0.9 | 0.00 | 0.28 | 0.28 | 73 | 1016.3 |
| 20260508015022 | 47 | 276 | 0.0 | 0.9 | 0.00 | 0.28 | 0.28 | 71 | 1016.3 |
| 20260508014608 | 47 | 276 | 0.0 | 0.9 | 0.00 | 0.28 | 0.28 | 71 | 1016.3 |
| 20260508014046 | 48 | 276 | 0.0 | 0.9 | 0.00 | 0.28 | 0.28 | 70 | 1016.0 |
| 20260508013527 | 49 | 276 | 0.0 | 0.9 | 0.00 | 0.28 | 0.28 | 68 | 1015.9 |
| 20260508013105 | 49 | 283 | 0.0 | 2.6 | 0.00 | 0.28 | 0.28 | 66 | 1016.0 |
| 20260508012552 | 50 | 283 | 0.0 | 4.3 | 0.00 | 0.28 | 0.28 | 63 | 1016.1 |
| 20260508012021 | 50 | 189 | 1.7 | 5.2 | 0.00 | 0.28 | 0.28 | 60 | 1015.9 |
| 20260508011556 | 51 | 254 | 0.9 | 5.2 | 0.00 | 0.28 | 0.28 | 59 | 1015.8 |
| 20260508011050 | 50 | 302 | 1.7 | 5.2 | 0.00 | 0.28 | 0.28 | 59 | 1016.0 |
| 20260508010539 | 51 | 276 | 0.9 | 5.2 | 0.00 | 0.28 | 0.28 | 59 | 1015.9 |
| 20260508010118 | 50 | 300 | 1.7 | 8.7 | 0.00 | 0.28 | 0.28 | 60 | 1015.8 |
| 20260508005542 | 50 | 278 | 2.6 | 8.7 | 0.00 | 0.28 | 0.28 | 58 | 1015.7 |
| 20260508005039 | 50 | 285 | 1.7 | 6.1 | 0.00 | 0.28 | 0.28 | 63 | 1015.7 |
| 20260508004608 | 50 | 267 | 0.9 | 11.3 | 0.00 | 0.28 | 0.28 | 65 | 1015.7 |
| 20260508004038 | 50 | 295 | 2.6 | 13.0 | 0.00 | 0.28 | 0.28 | 63 | 1015.9 |
| 20260508003537 | 49 | 293 | 5.2 | 13.0 | 0.00 | 0.28 | 0.28 | 57 | 1016.1 |
| 20260508003111 | 50 | 172 | 5.2 | 13.0 | 0.00 | 0.28 | 0.28 | 57 | 1015.9 |
| 20260508002542 | 49 | 265 | 3.5 | 13.0 | 0.00 | 0.28 | 0.28 | 63 | 1015.6 |
| 20260508002020 | 49 | 243 | 5.2 | 13.0 | 0.00 | 0.28 | 0.28 | 59 | 1015.8 |
| 20260508001604 | 49 | 226 | 6.1 | 14.8 | 0.00 | 0.28 | 0.28 | 65 | 1016.1 |
| 20260508001042 | 50 | 288 | 2.6 | 12.2 | 0.00 | 0.28 | 0.28 | 69 | 1016.1 |
| 20260508000543 | 50 | 274 | 3.5 | 13.0 | 0.00 | 0.28 | 0.28 | 72 | 1016.0 |
| 20260508000113 | 50 | 312 | 5.2 | 13.0 | 0.00 | 0.28 | 0.28 | 68 | 1016.1 |
| 20260507235535 | 49 | 276 | 4.3 | 10.4 | 0.00 | 0.28 | 0.28 | 72 | 1016.0 |
| 20260507235023 | 49 | 299 | 2.6 | 10.4 | 0.00 | 0.28 | 0.28 | 76 | 1015.9 |
| 20260507234603 | 49 | 281 | 1.7 | 6.1 | 0.00 | 0.28 | 0.28 | 76 | 1015.9 |
| 20260507234042 | 48 | 282 | 1.7 | 6.1 | 0.00 | 0.28 | 0.28 | 75 | 1015.9 |
| 20260507233522 | 47 | 250 | 0.9 | 7.0 | 0.00 | 0.28 | 0.28 | 77 | 1016.3 |
| 20260507233118 | 47 | 262 | 2.6 | 7.0 | 0.03 | 0.28 | 0.28 | 77 | 1016.2 |
| 20260507232534 | 47 | 291 | 1.7 | 8.7 | 0.06 | 0.28 | 0.28 | 81 | 1015.9 |
| 20260507232035 | 47 | 300 | 3.5 | 8.7 | 0.07 | 0.28 | 0.28 | 79 | 1016.0 |
| 20260507231610 | 46 | 297 | 0.9 | 9.6 | 0.08 | 0.28 | 0.28 | 82 | 1016.0 |
| 20260507231022 | 46 | 293 | 1.7 | 9.6 | 0.11 | 0.28 | 0.28 | 79 | 1016.0 |
| 20260507230538 | 46 | 245 | 2.6 | 11.3 | 0.11 | 0.28 | 0.28 | 82 | 1016.0 |
| 20260507230047 | 45 | 293 | 4.3 | 11.3 | 0.11 | 0.28 | 0.28 | 82 | 1016.1 |
| 20260507225535 | 44 | 328 | 2.6 | 10.4 | 0.11 | 0.28 | 0.28 | 82 | 1016.2 |
| 20260507225023 | 43 | 169 | 6.1 | 12.2 | 0.11 | 0.28 | 0.28 | 85 | 1016.3 |
| 20260507224642 | 43 | 316 | 4.3 | 12.2 | 0.11 | 0.28 | 0.28 | 86 | 1016.6 |
| 20260507224035 | 43 | 304 | 5.2 | 11.3 | 0.11 | 0.28 | 0.28 | 86 | 1016.7 |
| 20260507223530 | 44 | 264 | 4.3 | 15.6 | 0.09 | 0.26 | 0.26 | 86 | 1017.0 |
| 20260507223135 | 45 | 290 | 6.1 | 15.6 | 0.07 | 0.24 | 0.24 | 83 | 1016.7 |
| 20260507222539 | 47 | 305 | 3.5 | 9.6 | 0.04 | 0.21 | 0.21 | 77 | 1016.3 |
| 20260507222017 | 48 | 291 | 1.7 | 5.2 | 0.04 | 0.21 | 0.21 | 75 | 1016.1 |
| 20260507221637 | 50 | 149 | 0.0 | 7.0 | 0.02 | 0.19 | 0.19 | 68 | 1016.1 |
| 20260507221040 | 51 | 269 | 1.7 | 7.0 | 0.00 | 0.17 | 0.17 | 64 | 1015.9 |
| 20260507220551 | 52 | 255 | 1.7 | 4.3 | 0.00 | 0.17 | 0.17 | 65 | 1015.8 |
| 20260507220052 | 52 | 272 | 0.9 | 3.5 | 0.00 | 0.17 | 0.17 | 64 | 1015.8 |
| 20260507215556 | 52 | 264 | 0.9 | 4.3 | 0.00 | 0.17 | 0.17 | 64 | 1015.8 |
| 20260507215100 | 52 | 279 | 0.9 | 6.1 | 0.00 | 0.17 | 0.17 | 63 | 1015.8 |
| 20260507214623 | 52 | 302 | 0.9 | 6.1 | 0.00 | 0.17 | 0.17 | 63 | 1015.9 |
| 20260507214049 | 52 | 280 | 1.7 | 6.1 | 0.00 | 0.17 | 0.17 | 64 | 1015.9 |
| 20260507213531 | 53 | 285 | 0.9 | 4.3 | 0.00 | 0.17 | 0.17 | 61 | 1016.1 |
| 20260507213119 | 53 | 236 | 0.9 | 6.1 | 0.00 | 0.17 | 0.17 | 65 | 1016.1 |
| 20260507212526 | 52 | 292 | 2.6 | 6.1 | 0.00 | 0.17 | 0.17 | 64 | 1016.1 |
| 20260507212041 | 52 | 243 | 2.6 | 6.1 | 0.00 | 0.17 | 0.17 | 63 | 1016.1 |
| 20260507211550 | 51 | 201 | 1.7 | 4.3 | 0.00 | 0.17 | 0.17 | 66 | 1016.2 |
| 20260507211026 | 49 | 312 | 1.7 | 4.3 | 0.00 | 0.17 | 0.17 | 68 | 1016.3 |
| 20260507210544 | 49 | 296 | 1.7 | 5.2 | 0.00 | 0.17 | 0.17 | 71 | 1016.4 |
| 20260507210124 | 49 | 300 | 2.6 | 6.1 | 0.00 | 0.17 | 0.17 | 70 | 1016.6 |
| 20260507205524 | 49 | 280 | 2.6 | 7.8 | 0.00 | 0.17 | 0.17 | 70 | 1016.5 |
| 20260507205055 | 49 | 300 | 2.6 | 7.8 | 0.00 | 0.17 | 0.17 | 73 | 1016.6 |
| 20260507204639 | 50 | 258 | 3.5 | 7.8 | 0.00 | 0.17 | 0.17 | 75 | 1016.4 |
| 20260507204023 | 50 | 240 | 2.6 | 7.8 | 0.00 | 0.17 | 0.17 | 73 | 1016.5 |
| 20260507203520 | 51 | 217 | 3.5 | 7.8 | 0.00 | 0.17 | 0.17 | 68 | 1016.4 |
| 20260507203107 | 52 | 283 | 2.6 | 7.8 | 0.00 | 0.17 | 0.17 | 65 | 1016.3 |
| 20260507202535 | 53 | 276 | 2.6 | 7.0 | 0.00 | 0.17 | 0.17 | 65 | 1016.3 |
| 20260507202018 | 53 | 236 | 2.6 | 9.6 | 0.00 | 0.17 | 0.17 | 65 | 1016.3 |
| 20260507201614 | 54 | 245 | 2.6 | 9.6 | 0.00 | 0.17 | 0.17 | 62 | 1016.4 |
| 20260507201023 | 55 | 139 | 2.6 | 8.7 | 0.00 | 0.17 | 0.17 | 62 | 1016.1 |
| 20260507200540 | 56 | 291 | 4.3 | 9.6 | 0.00 | 0.17 | 0.17 | 59 | 1016.0 |
| 20260507200127 | 55 | 282 | 2.6 | 9.6 | 0.00 | 0.17 | 0.17 | 60 | 1016.2 |
| 20260507195522 | 56 | 306 | 3.5 | 9.6 | 0.00 | 0.17 | 0.17 | 60 | 1016.3 |
| 20260507195036 | 55 | 285 | 3.5 | 8.7 | 0.00 | 0.17 | 0.17 | 61 | 1016.3 |
| 20260507194608 | 55 | 248 | 2.6 | 7.0 | 0.00 | 0.17 | 0.17 | 61 | 1016.3 |
| 20260507194023 | 54 | 256 | 1.7 | 7.0 | 0.00 | 0.17 | 0.17 | 64 | 1016.4 |
| 20260507193521 | 54 | 288 | 2.6 | 7.0 | 0.00 | 0.17 | 0.17 | 67 | 1016.3 |
| 20260507193130 | 54 | 257 | 1.7 | 7.0 | 0.00 | 0.17 | 0.17 | 63 | 1016.3 |
| 20260507192527 | 53 | 150 | 1.7 | 7.0 | 0.00 | 0.17 | 0.17 | 65 | 1016.3 |
| 20260507192027 | 53 | 278 | 2.6 | 8.7 | 0.00 | 0.17 | 0.17 | 62 | 1016.2 |
| 20260507191629 | 53 | 163 | 2.6 | 8.7 | 0.00 | 0.17 | 0.17 | 63 | 1016.3 |
| 20260507191033 | 52 | 311 | 2.6 | 6.1 | 0.00 | 0.17 | 0.17 | 66 | 1016.2 |
| 20260507190534 | 51 | 114 | 2.6 | 7.0 | 0.00 | 0.17 | 0.17 | 68 | 1016.2 |
| 20260507190148 | 51 | 247 | 2.6 | 8.7 | 0.00 | 0.17 | 0.17 | 68 | 1016.3 |
| 20260507185538 | 50 | 286 | 4.3 | 8.7 | 0.00 | 0.17 | 0.17 | 67 | 1016.3 |
| 20260507185032 | 51 | 318 | 3.5 | 8.7 | 0.00 | 0.17 | 0.17 | 67 | 1016.3 |
| 20260507184636 | 52 | 215 | 3.5 | 11.3 | 0.00 | 0.17 | 0.17 | 66 | 1016.4 |
| 20260507184039 | 52 | 262 | 5.2 | 11.3 | 0.00 | 0.17 | 0.17 | 66 | 1016.2 |
| 20260507183540 | 52 | 311 | 3.5 | 7.8 | 0.00 | 0.17 | 0.17 | 67 | 1016.4 |
| 20260507183118 | 51 | 302 | 2.6 | 6.1 | 0.00 | 0.17 | 0.17 | 67 | 1016.4 |
| 20260507182530 | 50 | 284 | 1.7 | 5.2 | 0.00 | 0.17 | 0.17 | 72 | 1016.3 |
| 20260507182026 | 49 | 275 | 0.9 | 5.2 | 0.00 | 0.17 | 0.17 | 74 | 1016.4 |
| 20260507181607 | 48 | 269 | 0.9 | 6.1 | 0.00 | 0.17 | 0.17 | 74 | 1016.4 |
| 20260507181034 | 49 | 258 | 0.9 | 6.1 | 0.00 | 0.17 | 0.17 | 75 | 1016.6 |
| 20260507180540 | 50 | 270 | 0.9 | 8.7 | 0.00 | 0.17 | 0.17 | 73 | 1016.5 |
| 20260507180122 | 51 | 287 | 1.7 | 8.7 | 0.00 | 0.17 | 0.17 | 72 | 1016.5 |
| 20260507175526 | 52 | 250 | 0.9 | 4.3 | 0.00 | 0.17 | 0.17 | 71 | 1016.4 |
| 20260507175040 | 52 | 152 | 0.9 | 6.1 | 0.00 | 0.17 | 0.17 | 69 | 1016.5 |
| 20260507174641 | 53 | 287 | 0.0 | 7.8 | 0.00 | 0.17 | 0.17 | 71 | 1016.4 |
| 20260507174021 | 53 | 314 | 1.7 | 7.8 | 0.00 | 0.17 | 0.17 | 74 | 1016.4 |
| 20260507173521 | 52 | 299 | 1.7 | 5.2 | 0.00 | 0.17 | 0.17 | 73 | 1016.3 |
| 20260507173125 | 51 | 248 | 0.9 | 5.2 | 0.00 | 0.17 | 0.17 | 75 | 1016.4 |
| 20260507172519 | 51 | 302 | 0.9 | 6.1 | 0.00 | 0.17 | 0.17 | 71 | 1016.3 |
| 20260507172036 | 51 | 255 | 1.7 | 6.1 | 0.00 | 0.17 | 0.17 | 73 | 1016.2 |
| 20260507171553 | 51 | 304 | 2.6 | 7.0 | 0.00 | 0.17 | 0.17 | 76 | 1016.4 |
| 20260507171043 | 51 | 232 | 2.6 | 7.0 | 0.00 | 0.17 | 0.17 | 77 | 1016.4 |
| 20260507170541 | 51 | 303 | 1.7 | 5.2 | 0.00 | 0.17 | 0.17 | 74 | 1016.5 |
| 20260507170112 | 52 | 243 | 2.6 | 6.1 | 0.00 | 0.17 | 0.17 | 74 | 1016.3 |
| 20260507165519 | 52 | 283 | 1.7 | 7.0 | 0.00 | 0.17 | 0.17 | 74 | 1016.3 |
| 20260507165025 | 52 | 304 | 2.6 | 7.0 | 0.00 | 0.17 | 0.17 | 77 | 1016.3 |
| 20260507164643 | 51 | 283 | 2.6 | 7.0 | 0.00 | 0.17 | 0.17 | 78 | 1016.2 |
| 20260507164043 | 51 | 249 | 1.7 | 7.0 | 0.00 | 0.17 | 0.17 | 79 | 1016.2 |
| 20260507163533 | 50 | 265 | 1.7 | 6.1 | 0.00 | 0.17 | 0.17 | 84 | 1016.2 |
| 20260507163125 | 50 | 277 | 2.6 | 6.1 | 0.00 | 0.17 | 0.17 | 81 | 1016.2 |
| 20260507162534 | 50 | 283 | 1.7 | 5.2 | 0.00 | 0.17 | 0.17 | 81 | 1016.3 |
| 20260507162021 | 51 | 285 | 0.0 | 6.1 | 0.00 | 0.17 | 0.17 | 85 | 1016.2 |
| 20260507161613 | 49 | 270 | 0.9 | 6.1 | 0.00 | 0.17 | 0.17 | 85 | 1016.2 |
| 20260507161033 | 49 | 311 | 1.7 | 6.1 | 0.00 | 0.17 | 0.17 | 85 | 1016.2 |
| 20260507160527 | 49 | 303 | 1.7 | 5.2 | 0.00 | 0.17 | 0.17 | 86 | 1016.3 |
| 20260507160141 | 48 | 255 | 1.7 | 7.0 | 0.00 | 0.17 | 0.17 | 86 | 1016.2 |
| 20260507155521 | 48 | 133 | 0.9 | 4.3 | 0.00 | 0.17 | 0.17 | 90 | 1016.3 |
| 20260507155036 | 47 | 245 | 0.9 | 2.6 | 0.00 | 0.17 | 0.17 | 89 | 1016.4 |
| 20260507154612 | 46 | 289 | 0.0 | 2.6 | 0.00 | 0.17 | 0.17 | 91 | 1016.4 |
| 20260507154026 | 45 | 251 | 0.0 | 2.6 | 0.00 | 0.17 | 0.17 | 90 | 1016.4 |
| 20260507153526 | 45 | 252 | 0.0 | 2.6 | 0.00 | 0.17 | 0.17 | 90 | 1016.2 |
| 20260507153059 | 45 | 272 | 0.0 | 2.6 | 0.00 | 0.17 | 0.17 | 90 | 1016.2 |
| 20260507152536 | 45 | 278 | 0.0 | 2.6 | 0.00 | 0.17 | 0.17 | 92 | 1016.2 |
| 20260507152021 | 45 | 257 | 0.0 | 1.7 | 0.00 | 0.17 | 0.17 | 92 | 1016.1 |
| 20260507151609 | 44 | 243 | 0.0 | 1.7 | 0.00 | 0.17 | 0.17 | 92 | 1016.0 |
| 20260507151039 | 43 | 240 | 0.0 | 0.9 | 0.00 | 0.17 | 0.17 | 92 | 1016.1 |
| 20260507150536 | 43 | 240 | 0.0 | 3.5 | 0.00 | 0.17 | 0.17 | 92 | 1016.0 |
| 20260507150139 | 43 | 125 | 0.0 | 2.6 | 0.00 | 0.17 | 0.17 | 92 | 1015.9 |
| 20260507145538 | 42 | 146 | 0.9 | 2.6 | 0.00 | 0.17 | 0.17 | 92 | 1015.8 |
| 20260507145023 | 43 | 266 | 0.0 | 2.6 | 0.00 | 0.17 | 0.17 | 92 | 1015.7 |
| 20260507144606 | 42 | 99 | 0.0 | 5.2 | 0.00 | 0.17 | 0.17 | 92 | 1015.6 |
| 20260507144033 | 42 | 229 | 0.9 | 5.2 | 0.00 | 0.17 | 0.17 | 93 | 1015.5 |
| 20260507143536 | 42 | 124 | 0.0 | 1.7 | 0.00 | 0.17 | 0.17 | 93 | 1015.5 |
| 20260507143120 | 42 | 295 | 0.0 | 1.7 | 0.00 | 0.17 | 0.17 | 93 | 1015.5 |
| 20260507142520 | 42 | 133 | 0.0 | 0.9 | 0.00 | 0.17 | 0.17 | 94 | 1015.5 |
| 20260507142031 | 42 | 133 | 0.0 | 0.9 | 0.04 | 0.17 | 0.17 | 94 | 1015.5 |
| 20260507141627 | 42 | 133 | 0.0 | 0.9 | 0.04 | 0.17 | 0.17 | 94 | 1015.5 |
| 20260507141044 | 42 | 133 | 0.0 | 0.9 | 0.04 | 0.17 | 0.17 | 94 | 1015.4 |
| 20260507140537 | 41 | 233 | 0.0 | 0.9 | 0.04 | 0.17 | 0.17 | 94 | 1015.2 |
| 20260507140115 | 41 | 236 | 0.0 | 0.9 | 0.04 | 0.17 | 0.17 | 94 | 1015.1 |
| 20260507135526 | 41 | 136 | 0.0 | 0.9 | 0.04 | 0.17 | 0.17 | 94 | 1015.1 |
| 20260507135046 | 40 | 136 | 0.0 | 0.0 | 0.04 | 0.17 | 0.17 | 94 | 1015.1 |
| 20260507134609 | 40 | 136 | 0.0 | 0.9 | 0.04 | 0.17 | 0.17 | 93 | 1015.1 |
| 20260507134038 | 40 | 136 | 0.0 | 0.9 | 0.04 | 0.17 | 0.17 | 93 | 1015.0 |
| 20260507133522 | 40 | 293 | 0.0 | 1.7 | 0.04 | 0.17 | 0.17 | 92 | 1015.1 |
| 20260507133123 | 40 | 293 | 0.0 | 6.1 | 0.04 | 0.17 | 0.17 | 92 | 1015.2 |
| 20260507132533 | 40 | 84 | 0.9 | 11.3 | 0.04 | 0.16 | 0.16 | 92 | 1014.9 |
| 20260507132032 | 40 | 292 | 1.7 | 11.3 | 0.02 | 0.12 | 0.12 | 93 | 1015.4 |
| 20260507131612 | 40 | 116 | 0.0 | 0.9 | 0.03 | 0.12 | 0.12 | 92 | 1014.7 |
| 20260507131027 | 40 | 117 | 0.0 | 0.0 | 0.04 | 0.12 | 0.12 | 92 | 1014.7 |
| 20260507130546 | 40 | 116 | 0.0 | 1.7 | 0.06 | 0.12 | 0.12 | 92 | 1014.6 |
| 20260507130139 | 40 | 117 | 0.0 | 2.6 | 0.08 | 0.12 | 0.12 | 92 | 1014.6 |
| 20260507125548 | 40 | 128 | 0.0 | 2.6 | 0.08 | 0.12 | 0.12 | 92 | 1014.7 |
| 20260507125044 | 40 | 238 | 0.0 | 1.7 | 0.08 | 0.12 | 0.12 | 92 | 1014.7 |
| 20260507124635 | 40 | 276 | 0.0 | 2.6 | 0.08 | 0.12 | 0.12 | 91 | 1014.6 |
| 20260507124045 | 40 | 255 | 0.0 | 6.1 | 0.08 | 0.12 | 0.12 | 91 | 1014.5 |
| 20260507123526 | 40 | 241 | 2.6 | 6.1 | 0.08 | 0.12 | 0.12 | 91 | 1014.9 |
| 20260507123142 | 40 | 278 | 1.7 | 6.1 | 0.08 | 0.12 | 0.12 | 91 | 1014.7 |
| 20260507122542 | 40 | 252 | 0.9 | 5.2 | 0.08 | 0.11 | 0.11 | 90 | 1014.9 |
| 20260507122036 | 41 | 299 | 1.7 | 5.2 | 0.07 | 0.09 | 0.09 | 90 | 1014.9 |
| 20260507121644 | 41 | 280 | 0.9 | 6.1 | 0.04 | 0.08 | 0.08 | 90 | 1014.9 |
| 20260507121025 | 41 | 257 | 1.7 | 6.1 | 0.04 | 0.08 | 0.08 | 89 | 1014.8 |
| 20260507120527 | 41 | 256 | 1.7 | 6.1 | 0.03 | 0.06 | 0.06 | 88 | 1014.9 |
| 20260507120151 | 42 | 264 | 0.9 | 3.5 | 0.01 | 0.04 | 0.04 | 87 | 1014.8 |
| 20260507115547 | 41 | 274 | 0.0 | 3.5 | 0.01 | 0.04 | 0.04 | 88 | 1014.6 |
| 20260507115036 | 41 | 176 | 0.0 | 1.7 | 0.01 | 0.04 | 0.04 | 88 | 1014.5 |
| 20260507114649 | 42 | 120 | 0.0 | 2.6 | 0.01 | 0.04 | 0.04 | 87 | 1014.6 |
| 20260507114031 | 42 | 241 | 0.9 | 4.3 | 0.01 | 0.04 | 0.04 | 86 | 1014.5 |
| 20260507113613 | 42 | 246 | 0.9 | 4.3 | 0.01 | 0.04 | 0.04 | 85 | 1014.5 |
| 20260507113130 | 41 | 281 | 0.0 | 4.3 | 0.01 | 0.04 | 0.04 | 86 | 1014.4 |
| 20260507112544 | 42 | 225 | 0.0 | 0.9 | 0.01 | 0.03 | 0.03 | 86 | 1014.5 |
| 20260507112021 | 42 | 146 | 0.0 | 2.6 | 0.01 | 0.03 | 0.03 | 85 | 1014.6 |
| 20260507111652 | 42 | 127 | 0.9 | 2.6 | 0.01 | 0.03 | 0.03 | 84 | 1014.5 |
| 20260507111028 | 42 | 236 | 0.0 | 3.5 | 0.01 | 0.03 | 0.03 | 84 | 1014.6 |
| 20260507110547 | 42 | 119 | 0.0 | 4.3 | 0.01 | 0.03 | 0.03 | 83 | 1014.7 |
| 20260507110147 | 43 | 285 | 0.9 | 4.3 | 0.01 | 0.03 | 0.03 | 83 | 1014.9 |
| 20260507105542 | 43 | 283 | 0.0 | 5.2 | 0.01 | 0.03 | 0.03 | 82 | 1015.0 |
| 20260507105026 | 43 | 285 | 0.9 | 9.6 | 0.01 | 0.03 | 0.03 | 82 | 1014.7 |
| 20260507104644 | 43 | 243 | 2.6 | 10.4 | 0.01 | 0.03 | 0.03 | 82 | 1014.3 |
| 20260507104047 | 43 | 120 | 2.6 | 10.4 | 0.01 | 0.03 | 0.03 | 82 | 1014.3 |
| 20260507103519 | 42 | 122 | 0.9 | 4.3 | 0.02 | 0.03 | 0.03 | 84 | 1014.4 |
| 20260507103149 | 42 | 218 | 0.9 | 10.4 | 0.02 | 0.03 | 0.03 | 84 | 1014.9 |
| 20260507102518 | 43 | 242 | 1.7 | 13.0 | 0.01 | 0.02 | 0.02 | 83 | 1015.2 |
| 20260507102034 | 43 | 255 | 3.5 | 13.0 | 0.01 | 0.02 | 0.02 | 83 | 1015.2 |
| 20260507101638 | 43 | 263 | 3.5 | 12.2 | 0.01 | 0.02 | 0.02 | 83 | 1015.0 |
| 20260507101047 | 43 | 217 | 4.3 | 17.4 | 0.01 | 0.02 | 0.02 | 83 | 1015.1 |
| 20260507100521 | 43 | 97 | 2.6 | 10.4 | 0.01 | 0.02 | 0.02 | 82 | 1015.1 |
| 20260507100126 | 44 | 281 | 2.6 | 11.3 | 0.01 | 0.02 | 0.02 | 81 | 1015.2 |
| 20260507095539 | 45 | 273 | 2.6 | 18.2 | 0.01 | 0.02 | 0.02 | 80 | 1015.3 |
| 20260507095045 | 45 | 320 | 4.3 | 18.2 | 0.01 | 0.02 | 0.02 | 77 | 1015.1 |
| 20260507094648 | 46 | 67 | 2.6 | 8.7 | 0.01 | 0.02 | 0.02 | 76 | 1014.7 |
| 20260507094052 | 46 | 110 | 0.9 | 4.3 | 0.01 | 0.02 | 0.02 | 75 | 1014.7 |
| 20260507093600 | 47 | 98 | 0.9 | 5.2 | 0.00 | 0.01 | 0.01 | 74 | 1014.7 |
| 20260507093116 | 47 | 262 | 1.7 | 6.1 | 0.00 | 0.01 | 0.01 | 71 | 1014.7 |
| 20260507092547 | 47 | 157 | 0.9 | 2.6 | 0.00 | 0.01 | 0.01 | 69 | 1014.5 |
| 20260507092048 | 46 | 123 | 0.0 | 1.7 | 0.00 | 0.01 | 0.01 | 71 | 1014.5 |
| 20260507091632 | 46 | 133 | 0.9 | 1.7 | 0.00 | 0.01 | 0.01 | 71 | 1014.3 |
| 20260507091036 | 46 | 116 | 0.0 | 2.6 | 0.00 | 0.01 | 0.01 | 71 | 1014.3 |
| 20260507090532 | 46 | 130 | 0.0 | 2.6 | 0.00 | 0.01 | 0.01 | 70 | 1014.2 |
| 20260507090133 | 46 | 140 | 0.0 | 2.6 | 0.00 | 0.01 | 0.01 | 70 | 1014.2 |
| 20260507085536 | 46 | 115 | 0.9 | 2.6 | 0.00 | 0.01 | 0.01 | 70 | 1014.0 |
| 20260507085039 | 46 | 132 | 0.0 | 2.6 | 0.00 | 0.01 | 0.01 | 70 | 1014.0 |
| 20260507084634 | 46 | 146 | 0.0 | 4.3 | 0.00 | 0.01 | 0.01 | 70 | 1014.0 |
| 20260507084036 | 46 | 146 | 0.0 | 4.3 | 0.00 | 0.01 | 0.01 | 71 | 1014.0 |
| 20260507083551 | 45 | 139 | 0.0 | 3.5 | 0.00 | 0.01 | 0.01 | 71 | 1014.1 |
| 20260507083115 | 45 | 124 | 0.0 | 3.5 | 0.00 | 0.01 | 0.01 | 72 | 1014.0 |
| 20260507082543 | 45 | 110 | 0.9 | 2.6 | 0.01 | 0.01 | 0.01 | 72 | 1014.1 |
| 20260507082037 | 45 | 270 | 0.0 | 1.7 | 0.01 | 0.01 | 0.01 | 72 | 1014.1 |
| 20260507081648 | 45 | 127 | 0.0 | 2.6 | 0.01 | 0.01 | 0.01 | 73 | 1014.2 |
| 20260507081023 | 45 | 146 | 0.0 | 3.5 | 0.01 | 0.01 | 0.01 | 73 | 1014.1 |
| 20260507080521 | 45 | 133 | 0.0 | 3.5 | 0.01 | 0.01 | 0.01 | 73 | 1014.2 |
| 20260507080119 | 45 | 243 | 0.0 | 2.6 | 0.01 | 0.01 | 0.01 | 73 | 1014.1 |
| 20260507075549 | 46 | 136 | 0.9 | 2.6 | 0.01 | 0.01 | 0.01 | 72 | 1014.1 |
| 20260507075024 | 46 | 115 | 0.9 | 2.6 | 0.01 | 0.01 | 0.01 | 73 | 1014.0 |
| 20260507074621 | 46 | 136 | 0.0 | 2.6 | 0.01 | 0.01 | 0.01 | 74 | 1014.1 |
| 20260507074048 | 46 | 134 | 0.0 | 2.6 | 0.01 | 0.01 | 0.01 | 74 | 1014.1 |
| 20260507073526 | 46 | 162 | 0.0 | 4.3 | 0.01 | 0.01 | 0.01 | 75 | 1014.1 |
| 20260507073054 | 46 | 144 | 0.0 | 4.3 | 0.00 | 0.00 | 0.00 | 74 | 1014.1 |
| 20260507072540 | 46 | 200 | 0.0 | 1.7 | 0.00 | 0.00 | 0.00 | 75 | 1014.1 |
| 20260507072015 | 45 | 120 | 0.0 | 1.7 | 0.00 | 0.00 | 0.00 | 74 | 1014.0 |
| 20260507071556 | 46 | 134 | 0.0 | 2.6 | 0.00 | 0.00 | 0.00 | 75 | 1014.1 |
| 20260507071035 | 46 | 213 | 0.0 | 3.5 | 0.00 | 0.00 | 0.00 | 74 | 1014.1 |
| 20260507070539 | 46 | 139 | 0.9 | 3.5 | 0.00 | 0.00 | 0.00 | 73 | 1014.1 |
| 20260507070113 | 46 | 248 | 0.9 | 3.5 | 0.00 | 0.00 | 0.00 | 73 | 1014.1 |
| 20260507065540 | 46 | 156 | 0.9 | 5.2 | 0.00 | 0.00 | 0.00 | 73 | 1014.1 |
| 20260507065038 | 46 | 135 | 1.7 | 5.2 | 0.00 | 0.00 | 0.00 | 75 | 1014.1 |
| 20260507064559 | 46 | 245 | 0.0 | 3.5 | 0.00 | 0.00 | 0.00 | 75 | 1014.0 |
| 20260507064045 | 46 | 300 | 0.0 | 3.5 | 0.00 | 0.00 | 0.00 | 73 | 1014.0 |
| 20260507063531 | 46 | 88 | 0.0 | 4.3 | 0.00 | 0.00 | 0.00 | 74 | 1014.0 |
| 20260507063049 | 46 | 272 | 0.9 | 6.1 | 0.00 | 0.00 | 0.00 | 75 | 1014.2 |
| 20260507062524 | 46 | 257 | 2.6 | 6.1 | 0.00 | 0.00 | 0.00 | 76 | 1014.3 |
| 20260507062358 | 46 | 140 | 0.0 | 7.0 | 0.00 | 0.00 | 0.00 | 76 | 1014.4 |
| 20260507061639 | 46 | 257 | 0.9 | 7.0 | 0.00 | 0.00 | 0.00 | 76 | 1014.6 |
| 20260507061041 | 47 | 239 | 0.9 | 8.7 | 0.00 | 0.00 | 0.00 | 76 | 1014.7 |
| 20260507060543 | 47 | 274 | 2.6 | 8.7 | 0.00 | 0.00 | 0.00 | 74 | 1014.6 |
| 20260507060153 | 48 | 225 | 3.5 | 12.2 | 0.00 | 0.00 | 0.00 | 71 | 1014.3 |
| 20260507055515 | 48 | 265 | 3.5 | 12.2 | 0.00 | 0.00 | 0.00 | 69 | 1014.3 |
| 20260507055032 | 48 | 285 | 2.6 | 7.8 | 0.00 | 0.00 | 0.00 | 71 | 1014.5 |
| 20260507054651 | 48 | 261 | 1.7 | 6.1 | 0.00 | 0.00 | 0.00 | 71 | 1014.5 |
| 20260507054021 | 48 | 240 | 1.7 | 6.1 | 0.00 | 0.00 | 0.00 | 70 | 1014.5 |
| 20260507053521 | 48 | 70 | 1.7 | 6.1 | 0.00 | 0.00 | 0.00 | 70 | 1014.4 |
| 20260507053124 | 48 | 145 | 2.6 | 6.1 | 0.00 | 0.00 | 0.00 | 69 | 1014.4 |
| 20260507052518 | 48 | 103 | 0.9 | 8.7 | 0.00 | 0.00 | 0.00 | 70 | 1014.5 |
| 20260507052015 | 48 | 257 | 1.7 | 8.7 | 0.00 | 0.00 | 0.00 | 70 | 1014.5 |
| 20260507051649 | 48 | 287 | 1.7 | 7.0 | 0.00 | 0.00 | 0.00 | 71 | 1014.5 |
| 20260507051032 | 48 | 134 | 0.9 | 6.1 | 0.00 | 0.00 | 0.00 | 71 | 1014.3 |
| 20260507050524 | 48 | 245 | 2.6 | 7.8 | 0.00 | 0.00 | 0.00 | 71 | 1014.6 |
| 20260507050202 | 48 | 193 | 1.7 | 9.6 | 0.00 | 0.00 | 0.00 | 72 | 1014.5 |
| 20260507045529 | 49 | 150 | 3.5 | 16.5 | 0.00 | 0.00 | 0.00 | 70 | 1014.5 |
| 20260507045026 | 50 | 290 | 4.3 | 16.5 | 0.00 | 0.00 | 0.00 | 67 | 1014.6 |
| 20260507044621 | 52 | 120 | 6.1 | 17.4 | 0.00 | 0.00 | 0.00 | 61 | 1014.3 |
| 20260507044035 | 52 | 162 | 2.6 | 8.7 | 0.00 | 0.00 | 0.00 | 56 | 1014.4 |
| 20260507043532 | 52 | 80 | 1.7 | 6.1 | 0.00 | 0.00 | 0.00 | 55 | 1014.1 |
| 20260507043135 | 53 | 224 | 1.7 | 6.1 | 0.00 | 0.00 | 0.00 | 55 | 1013.9 |
| 20260507042533 | 52 | 136 | 2.6 | 5.2 | 0.00 | 0.00 | 0.00 | 55 | 1014.0 |
| 20260507042034 | 53 | 262 | 1.7 | 8.7 | 0.00 | 0.00 | 0.00 | 56 | 1013.9 |
| 20260507041637 | 53 | 360 | 2.6 | 8.7 | 0.00 | 0.00 | 0.00 | 54 | 1013.9 |
| 20260507041017 | 53 | 85 | 2.6 | 7.0 | 0.00 | 0.00 | 0.00 | 54 | 1013.9 |
| 20260507040545 | 53 | 63 | 2.6 | 5.2 | 0.00 | 0.00 | 0.00 | 54 | 1014.0 |
| 20260507040131 | 53 | 70 | 0.9 | 5.2 | 0.00 | 0.00 | 0.00 | 53 | 1013.8 |
| 20260507035525 | 53 | 226 | 0.0 | 5.2 | 0.00 | 0.00 | 0.00 | 53 | 1013.9 |
| 20260507035024 | 53 | 71 | 0.9 | 3.5 | 0.00 | 0.00 | 0.00 | 52 | 1013.9 |
| 20260507034645 | 53 | 106 | 0.0 | 3.5 | 0.00 | 0.00 | 0.00 | 51 | 1014.0 |
| 20260507034042 | 53 | 119 | 0.9 | 3.5 | 0.00 | 0.00 | 0.00 | 50 | 1013.8 |
| 20260507033545 | 54 | 117 | 0.0 | 6.1 | 0.00 | 0.00 | 0.00 | 50 | 1013.9 |
| 20260507033202 | 54 | 151 | 0.9 | 7.0 | 0.00 | 0.00 | 0.00 | 49 | 1013.9 |
| 20260507032526 | 54 | 241 | 0.9 | 7.0 | 0.00 | 0.00 | 0.00 | 48 | 1013.9 |
| 20260507032031 | 54 | 10 | 0.9 | 3.5 | 0.00 | 0.00 | 0.00 | 47 | 1013.9 |
| 20260507031613 | 53 | 69 | 0.9 | 4.3 | 0.00 | 0.00 | 0.00 | 47 | 1013.7 |
| 20260507031029 | 53 | 203 | 0.0 | 4.3 | 0.00 | 0.00 | 0.00 | 47 | 1013.6 |
| 20260507030524 | 54 | 128 | 0.9 | 3.5 | 0.00 | 0.00 | 0.00 | 46 | 1013.5 |